Powrót do katalogu

COSMOS 618

AktywnyMilitariaLEO
NORAD 6986·PAYLOAD·🇷🇺 Russia

Wystrzelony Dec 19, 1973 z Plesetsk Cosmodrome

Loading…

Następne Przeloty (najbliższe 24 godziny)

TLE

ŚwieżeSource: Space-Track

Epoka: Sep 14, 2026, 14:55 UTC

1 06986U 73104B   26257.62175749 -.00000016  00000-0 -26186-6 0  9995
2 06986  74.0281 214.0248 0027617 341.4915 192.1921 12.49929712406409

Śledź COSMOS 618 w czasie rzeczywistym z AllMySat

Download on the App Store